Location: Izdebno
(52.6670°N, 16.2170°E)
Time: 19:29:00
(UTC+01:00)

Explorer 7 - Visible Passes

Search period start: 30 January 2023 00:00
Search period end: 09 February 2023 00:00
Orbit: 480 x 660 km, 50.3° (Epoch: 30 January)

Date Brightness Start Highest point End Pass type
(mag) Time Alt. Az. Time Alt. Az. Time Alt. Az.
30 Jan 7.8 17:17:44 10° W 17:22:14 56° SSW 17:26:53 10° ESE visible
30 Jan 9.0 18:58:12 10° W 19:02:03 25° SSW 19:04:54 15° SSE visible
31 Jan 8.0 17:18:44 10° W 17:23:09 48° SSW 17:27:43 10° SE visible
31 Jan 9.4 18:59:27 10° W 19:02:50 20° SW 19:06:16 10° S visible
01 Feb 8.4 17:19:44 10° W 17:24:02 41° SSW 17:28:28 10° SE visible
01 Feb 9.8 19:00:56 10° WSW 19:03:34 15° SW 19:06:14 10° S visible
02 Feb 8.8 17:20:46 10° W 17:24:53 33° SSW 17:29:07 10° SE visible
02 Feb 10.1 19:03:10 10° WSW 19:04:15 11° SW 19:05:20 10° SSW visible
03 Feb 9.3 17:21:51 10° W 17:25:42 27° SSW 17:29:38 10° SSE visible
04 Feb 9.7 17:23:02 10° W 17:26:27 21° SW 17:29:56 10° SSE visible
05 Feb 10.0 17:24:24 10° WSW 17:27:09 16° SW 17:29:57 10° S visible
06 Feb 10.4 17:26:20 10° WSW 17:27:49 11° SW 17:29:20 10° SSW visible
